Погода в Новом Софпороге

Россия / Республика Карелия     65°49′11″N   31°29′25″E
темп.,
°C
ветер,
м/с
пор.,
м/с
влажн.,
%
обл.,
%
осадки,
мм/ч
давл.,
гПа
погр.,
м
7 марта, вс
вс700:00−7вюв71293100 1.0 985823
03:00−8в71392100 1.7 986817
06:00−9всв81492100 0.8 989826
09:00−11всв71489100 1.1 994716
12:00−10всв71388100 0.1 999662
15:00−9св61188100 0.1 1004639
18:00−11св4992100 0.1 1007478
21:00−15св369794 0.1 1010116
8 марта, пн
пн800:00−19ссв239949 0.0 101232
03:00−21ссв229864 0.0 101429
06:00−21св2397100 0.0 101579
09:00−22ссв229694 0.0 101683
12:00−18св238993 0.0 1017302
15:00−16св238596 0.0 1018402
18:00−19св129592 0.0 101920
21:00−23в119950 0.0 102020
9 марта, вт
вт900:00−24ю019745 0.0 102120
03:00−24з119571 0.0 102220
06:00−24зюз129225 0.0 102120
09:00−22зюз338513 0.0 102275
12:00−14зсз258211 0.0 1023270
15:00−13ссз348714 0.0 1023283
18:00−15сз22920 0.0 102420
21:00−17зсз22840 0.0 102520
10 марта, ср
ср1000:00−17з238148 0.0 102621
03:00−17з347674 0.0 102766
06:00−18з347977 0.0 102665
09:00−17з348558 0.0 102788
12:00−12з35800 0.0 1027260
15:00−9зюз36794 0.0 1026423
18:00−12зюз38880 0.0 1024209
21:00−15зюз411870 0.0 1024265
11 марта, чт
чт1100:00−16зюз4128410 0.0 1023276
03:00−17юз512855 0.0 1021312
06:00−17юз513820 0.0 1019333
09:00−15юз6148113 0.0 1018431
12:00−10юз613690 0.0 1015727
15:00−8юз612700 0.0 1013784
18:00−10ююз514750 0.0 1010687
21:00−12ююз6167826 0.0 1008585